DAL211 FACT-KATL

Flight info

Callsign DAL211
Flight time N/A
Altitude 34000
Route IMSOM1B IMSOM UQ36 APKIN UQ15 OKDOG DCT 30S010E 26S005E 22S000W 16S005W 10S010W/N0500F360 05S015W 00N020W DCT BUVUK/N0493F380 UL435 BUTUX/M085F400 L435 JAINS/N0487F400 AR12 DEDDY DCT HOTHH JJEDI3
Aircraft A359/H-SDE2E3GHIJ3J4J5LM1ORWXY/LB1D1

Departure

Time 2026-05-04 18:07
Airport Cape Town International Airport (FACT)

Arrival

Time N/A
Airport Hartsfield Jackson Atlanta International Airport (KATL)
Time Latitude Longitude Altitude Speed Heading
2026-05-04 17:49 -33.96646 18.59720 161 ft 0 kts 255°
2026-05-04 17:50 -33.96645 18.59721 160 ft 0 kts 255°
2026-05-04 18:00 -33.96645 18.59724 160 ft 1 kts 255°
2026-05-04 18:00 -33.96640 18.59745 160 ft 3 kts 255°
2026-05-04 18:00 -33.96635 18.59768 160 ft 3 kts 255°
2026-05-04 18:01 -33.96631 18.59792 160 ft 3 kts 277°
2026-05-04 18:01 -33.96637 18.59811 160 ft 3 kts 323°
2026-05-04 18:01 -33.96647 18.59818 160 ft 1 kts 345°
2026-05-04 18:02 -33.96677 18.59828 160 ft 0 kts 345°
2026-05-04 18:04 -33.96654 18.59820 160 ft 9 kts 345°
2026-05-04 18:04 -33.96557 18.59790 160 ft 17 kts 348°
2026-05-04 18:04 -33.96236 18.59733 160 ft 27 kts 17°
2026-05-04 18:05 -33.96098 18.59871 160 ft 24 kts 47°
2026-05-04 18:05 -33.96063 18.60003 160 ft 14 kts 146°
2026-05-04 18:05 -33.96160 18.60046 160 ft 17 kts 162°
2026-05-04 18:05 -33.96432 18.60146 162 ft 68 kts 163°
2026-05-04 18:06 -33.97987 18.60641 227 ft 152 kts 167°
2026-05-04 18:06 -33.98005 18.60647 237 ft 152 kts 167°
2026-05-04 18:06 -33.98862 18.60907 683 ft 144 kts 168°
2026-05-04 18:07 -33.99878 18.61215 936 ft 159 kts 167°
2026-05-04 18:07 -34.00965 18.61558 1279 ft 165 kts 168°
2026-05-04 18:07 -34.02160 18.61934 1517 ft 183 kts 168°
2026-05-04 18:07 -34.03428 18.62333 1728 ft 198 kts 168°
2026-05-04 18:08 -34.04821 18.62772 1933 ft 215 kts 167°
2026-05-04 18:08 -34.06312 18.63247 2217 ft 229 kts 169°
2026-05-04 18:08 -34.07911 18.63754 2391 ft 249 kts 168°
2026-05-04 18:08 -34.09623 18.64297 2786 ft 258 kts 168°
2026-05-04 18:09 -34.13143 18.64232 3860 ft 256 kts 207°
2026-05-04 18:09 -34.15162 18.61015 4928 ft 250 kts 265°
2026-05-04 18:10 -34.15077 18.58923 5483 ft 250 kts 277°
2026-05-04 18:10 -34.14842 18.56822 6036 ft 253 kts 278°
2026-05-04 18:10 -34.14607 18.54703 6585 ft 256 kts 278°
2026-05-04 18:10 -34.14382 18.52563 7137 ft 258 kts 278°
2026-05-04 18:11 -34.14166 18.50433 7694 ft 260 kts 277°
2026-05-04 18:11 -34.13952 18.48285 8243 ft 262 kts 277°
2026-05-04 18:11 -34.13737 18.46099 8823 ft 264 kts 277°
2026-05-04 18:11 -34.13521 18.43888 9388 ft 266 kts 277°
2026-05-04 18:12 -34.13302 18.41659 9994 ft 268 kts 277°
2026-05-04 18:12 -34.13081 18.39398 10366 ft 277 kts 277°
2026-05-04 18:12 -34.12848 18.37021 10615 ft 291 kts 277°
2026-05-04 18:12 -34.12605 18.34539 10851 ft 304 kts 277°